{"data":{"norad_id":56493,"intl_designator":"2023-064AX","name":"STARLINK-5841","alt_names":[],"object_type":"PAYLOAD","status":"ACTIVE","operator":null,"country":"US","launch_date":"2023-05-10","launch_site_code":"AFWTR","launch_vehicle":null,"mission":null,"orbit_class":"UNKNOWN","rcs_meters":null,"size_class":null,"mass_kg":null,"dimensions":null,"purposes":["comms"],"wikipedia_slug":null,"has_3d_model":false,"image_url":null,"decayed_at":null,"tle_current":{"epoch":"2026-09-20T22:00:03.000096Z","epoch_age_seconds":76017,"freshness":"FRESH","line1":"1 56493U 23064AX  26263.91670139  .00083010  00000+0  56521-2 0  9999","line2":"2 56493  70.0010 312.1692 0006039 250.1053 335.4881 15.05804041  5763","mean_motion":15.05804041,"eccentricity":0.0006039,"inclination_deg":70.001,"raan_deg":312.1692,"arg_perigee_deg":250.1053,"mean_anomaly_deg":335.4881,"bstar":0.0056521,"rev_number":576,"period_min":95.629973143365,"perigee_km":544.85536742581,"apogee_km":553.22201022277,"semimajor_km":6927.1756888243,"source":"CELESTRAK","updated_at":"2026-09-21T09:00:33.450107Z"}}}